Regional Weather Roundup
Issued by NWS Newport/Morehead, NC

Current Version | Previous Version | Graphics & Text | Print | Product List | Glossary Off
Versions: 1 2 3 4 5 6 7 8 9 10 11 12 13 14 15 16 17 18 19 20 21 22 23 24 25 26 27 28 29 30 31 32 33 34 35 36 37 38 39 40 41 42 43 44 45 46 47 48 49 50

000
ASUS42 KMHX 301410
RWRMHX
WEATHER ROUNDUP FOR EASTERN NORTH CAROLINA
NATIONAL WEATHER SERVICE NEWPORT/MOREHEAD CITY NC
1000 AM EDT WED JUL 30 2014

NOTE: "FAIR" INDICATES FEW OR NO CLOUDS BELOW 12,000 FEET
WITH NO SIGNIFICANT WEATHER AND/OR OBSTRUCTIONS TO VISIBILITY

NCZ015>017-031-032-045>047-102-103-301500-
NORTH COAST

CITY           SKY/WX    TMP DP  RH WIND       PRES   REMARKS
EDENTON        MOSUNNY   74  63  68 NE5       30.07S
ELIZABETH CITY SUNNY     76  61  59 N9        30.08R
KITTY HAWK     SUNNY     77  61  57 NE7       30.06R
MANTEO         NOT AVBL

$$

NCZ045>047-081-094-103-104-301500-
CENTRAL COAST

CITY           SKY/WX    TMP DP  RH WIND       PRES   REMARKS
FRISCO         SUNNY     80  62  54 NE9       30.06R
SWANQUARTER      N/A     79 N/A N/A NE5G12    30.03R

$$

NCZ095-097-098-100-101-301500-
SOUTHERN COAST

CITY           SKY/WX    TMP DP  RH WIND       PRES   REMARKS
BEAUFORT       SUNNY     80  64  58 NE9       30.05R
CEDAR ISLAND     N/A     79 N/A N/A NE12      30.09S
JACKSONVILLE   SUNNY     79  67  66 E8        30.04S
NEWPORT        NOT AVBL
PINEY ISLAND   SUNNY     80  65  59 NE13      30.05R
WILMINGTON     SUNNY     80  68  66 E6        30.03R


$$

NCZ011>013-027>030-043-044-078>080-089-090>093-098-301500-
COASTAL PLAIN

CITY           SKY/WX    TMP DP  RH WIND       PRES   REMARKS
AHOSKIE        CLOUDY    65  56  74 N7        30.09F
CLINTON          N/A     77  69  77 NE5       30.06S
ELIZABETHTOWN  SUNNY     77  67  71 CALM      30.05R
GOLDSBORO      SUNNY     74  68  80 N5        30.05S
GREENVILLE     SUNNY     73  64  73 NE7       30.09R
HAVELOCK       SUNNY     79  64  60 NE12      30.06R
KENANSVILLE    SUNNY     75  66  74 E3        30.07R
KINSTON        SUNNY     75  66  73 NE6       30.07S
NEW BERN       SUNNY     79  64  60 NE6       30.07R
RICHLANDS      SUNNY     77  64  65 E8        30.05S
ROANOKE RAPIDS NOT AVBL
ROCKY MOUNT    SUNNY     73  59  61 NE7G17    30.09R
WASHINGTON     SUNNY     73  65  75 NE6       30.07S
WHITEVILLE     NOT AVBL

$$

AMZ130-135-150-152-154-156-158-170-250-252-270-ANZ085-086-088-633-658-670-301500-
MARINE OBSERVATIONS

STATION/POSITION TIME  TEMP    WIND        PRES    WAVE   SWELL
                       AIR SEA DIR/SP/G            HT/PER HT/PER
                 (UTC) (F)     (DEG/KT/KT) (MB)    (FT/S) (FT/S)
CHESAPEAKE LIGHT NOT AVBL
BUOY 44014       1400   74 78  360/ 10/ 12 1017.6    2/ 8   2/ 8
DUCK             1400   74 75   10/  9/ 11 1017.3
2E DUCK          1400                        N/A     2/ 8
OREGON INLET     1400   76 78   30/  9/ 12 1017.8
BUOY 44095       1400      78                N/A     3/ 9
20E OREGON INLET NOT AVBL
HATTERAS CG      1400   77 79   50/ 10/ 14 1018.0
DIAMOND BUOY     1400          VRB 14/ 17  1017.1    4/ 8   2/ 8
CAPE LOOKOUT     1300   77      50/ 13/ 15 1016.9
BEAUFORT LAB     1400   78 81   80/  8/ 11 1016.8
30 SE NEW RIVER  1400   79 81   50/ 14/ 16 1017.0    3/ 7   2/ 7
5 SE WRIGHTSVILL 1300   76 81   70/ 14/ 16   N/A
BUOY 41002       1305   77 80   50/  2/  4 1015.5    5/ 7   5/ 7
BUOY 41004       1400   81 84   80/ 10/ 14 1015.1    2/ 8   2/ 8

$$


USA.gov is the U.S. government's official web portal to all federal, state and local government web resources and services.